[[{"header":{"parameterUnit":"m.s-1","parameterCategory":1,"la1":30.2991,"la2":30.254,"lo1":-89.0895,"lo2":-89.0444,"dy":0.0017,"dx":0.0017,"nx":28,"ny":28,"refTime":"2023-10-31T09:00:00:Z","depth":0,"parameterNumber":2,"parameterNumberName":"U-component_of_WINDS"},"data":[0,0,0,0,0,0,0,0,0,0,0,0,0,0,0,0,0,0,0,0,0,0,0,0,0,0,0,0,0,0,0,0,0,0,0,0,0,0,0,0,0,0,0,0,0,0,0,0,0,0,0,0,0,0,0,0,0,0,0.1928,0.1928,0,0.1883,0.1883,0.1882,0.1872,0.1873,0.1873,0.1873,0.1826,0.1824,0.1823,0,0,0,0,0,0,0,0,0,0,0,0,0,0.2007,0.2005,0.1929,0.1928,0.1927,0.1883,0.1882,0.1882,0.1872,0.1873,0.1873,0.1874,0.1826,0.1824,0.1823,0,0,0,0,0,0,0,0,0,0,0,0,0,0.1968,0.2005,0.1929,0.1917,0.1916,0.1883,0.1882,0.1882,0.1872,0.1873,0.1873,0.1874,0.1827,0.1825,0.1822,0.1797,0,0,0.1815,0.1814,0,0,0,0,0,0,0,0,0.197,0.1965,0.192,0.1918,0.1916,0.1884,0.1893,0.1853,0.1872,0.1889,0.1873,0.1874,0.1845,0.1841,0.1831,0.1795,0.1793,0.1815,0.1813,0.1812,0.1812,0,0,0,0,0,0,0,0.1973,0.1967,0.191,0.1919,0.1917,0.1914,0.191,0.1885,0.1864,0.1887,0.1887,0.1881,0.1844,0.1834,0.183,0.1792,0.1815,0.1813,0.1811,0.181,0.1734,0.1734,0,0,0,0,0,0,0.1978,0.197,0.1912,0.1909,0.1945,0.1913,0.1907,0.1894,0.1865,0.1861,0.1881,0.1881,0.1837,0.1833,0.1828,0.1797,0.1812,0.181,0.1809,0.1735,0.1734,0.1734,0,0,0,0,0,0,0.198,0.1973,0.1914,0.1939,0.1931,0.1911,0.1896,0.1893,0.1882,0.186,0.1856,0.1874,0.1838,0.1832,0.1805,0.1795,0.1809,0.1807,0.1736,0.1735,0.1734,0.1735,0,0,0,0,0,0,0.1982,0.1973,0.1964,0.1939,0.193,0.1891,0.1895,0.1891,0.1878,0.1878,0.1852,0.1849,0.1837,0.1809,0.1803,0.1792,0.1805,0.1736,0.1735,0.1734,0.1736,0.1734,0.1733,0,0,0,0,0,0.1985,0.1965,0.1963,0.1956,0.1917,0.1891,0.1886,0.1874,0.1878,0.1867,0.1853,0.1849,0.1798,0.1806,0.1799,0.1788,0.1737,0.1735,0.1734,0.1736,0.1734,0.1733,0,0,0,0,0,0,0.1989,0.1962,0.1959,0.1931,0.1914,0.1889,0.1876,0.1872,0.1852,0.1853,0.1839,0.1833,0.1807,0.1795,0.1805,0.1763,0.1768,0.1765,0.1771,0.177,0.1768,0.1771,0.1803,0,0,0,0,0,0.1987,0.1967,0.1945,0.1923,0.1914,0.1897,0.1885,0.1877,0.1858,0.185,0.1834,0.1815,0.1795,0.1782,0.1762,0.1734,0.1729,0.1723,0.1722,0.1721,0.1718,0.1703,0.1701,0.1729,0.1729,0.1729,0,0,0.1981,0.1964,0.1953,0.1923,0.1908,0.1889,0.189,0.1869,0.1855,0.1847,0.1821,0.1809,0.1787,0.176,0.1748,0.1749,0.171,0.1719,0.1719,0.1716,0.1702,0.1699,0.1697,0.1728,0.1728,0.1729,0,0,0.1962,0.1947,0.1927,0.1913,0.1891,0.188,0.1875,0.1852,0.1844,0.1818,0.1812,0.1794,0.1759,0.1744,0.1732,0.1709,0.1705,0.1703,0.1695,0.1681,0.1679,0.1676,0.1668,0.1665,0.1701,0.1701,0.1701,0,0.1958,0.1929,0.1917,0.1897,0.1884,0.1877,0.1857,0.1843,0.1816,0.1807,0.181,0.1766,0.1751,0.1721,0.1715,0.1706,0.17,0.1705,0.168,0.1678,0.1676,0.1667,0.1664,0.1701,0.1701,0.1701,0.1701,0,0.1925,0.1905,0.1891,0.1866,0.1851,0.1831,0.1817,0.1804,0.1798,0.1787,0.1761,0.1743,0.1719,0.1712,0.1705,0.1681,0.1683,0.1683,0.1687,0.1673,0.1665,0.1662,0.17,0.17,0.17,0.17,0,0,0.1905,0.1875,0.187,0.1858,0.1835,0.1819,0.1798,0.1776,0.1765,0.1747,0.1729,0.1701,0.1701,0.1688,0.168,0.1667,0.165,0.1669,0.1668,0.1666,0.1622,0.1621,0.1618,0.1648,0.1647,0.1647,0.1624,0,0.1882,0.1846,0.1836,0.1805,0.1787,0.1781,0.1763,0.1746,0.1736,0.1719,0.1707,0.1687,0.1689,0.1681,0.1668,0.1655,0.1641,0.1657,0.1631,0.163,0.1636,0.1614,0.1613,0.1592,0.1621,0.162,0.162,0,0.1851,0.1832,0.18,0.1779,0.1771,0.1755,0.1734,0.1718,0.17,0.1693,0.1678,0.1672,0.1651,0.1658,0.1629,0.1639,0.1629,0.1621,0.162,0.1616,0.1623,0.1609,0.1585,0.1581,0.1615,0.1615,0.1615,0,0.1839,0.1807,0.1783,0.1773,0.1749,0.1738,0.1727,0.1709,0.1697,0.1679,0.1671,0.165,0.1639,0.1623,0.1612,0.1618,0.1584,0.1589,0.1578,0.1578,0.1569,0.157,0.1543,0.1564,0.1564,0.1564,0.1564,0,0.1814,0.1794,0.1777,0.1763,0.1741,0.173,0.1708,0.1697,0.1682,0.1665,0.1659,0.1643,0.163,0.1613,0.1604,0.1581,0.1576,0.157,0.1568,0.157,0.1571,0.1562,0.1563,0.1563,0.1564,0.1564,0.1564,0,0.1796,0.1785,0.1758,0.1738,0.1732,0.1717,0.1699,0.1685,0.1675,0.1654,0.1648,0.1632,0.1612,0.16,0.1573,0.1568,0.1542,0.1541,0.1549,0.1547,0.1536,0.1537,0.1501,0.1496,0.1522,0.1522,0.1521,0,0.1781,0.1766,0.1744,0.1732,0.1722,0.1703,0.1691,0.168,0.1667,0.1646,0.1634,0.1614,0.1596,0.1564,0.155,0.153,0.1528,0.1517,0.1525,0.1528,0.1527,0.1528,0.1526,0.1515,0.1515,0.1515,0.1515,0,0.1754,0.1749,0.1732,0.1712,0.1698,0.1682,0.1666,0.1657,0.1643,0.1629,0.1609,0.1595,0.1569,0.1549,0.1528,0.1517,0.1514,0.1513,0.1509,0.151,0.1515,0.1512,0.1544,0.1513,0.1513,0.1513,0.1513,0.1513,0.1737,0.1723,0.1706,0.1686,0.1674,0.1659,0.1645,0.1634,0.1616,0.1594,0.1589,0.1568,0.1551,0.1523,0.1511,0.1494,0.1496,0.149,0.1489,0.1487,0.1487,0.1519,0.1491,0.1491,0.1491,0.1491,0.1491,0,0.1709,0.1698,0.1681,0.1659,0.1644,0.1643,0.1626,0.1613,0.1594,0.1579,0.1562,0.1539,0.1519,0.1505,0.1485,0.1474,0.1472,0.1469,0.1469,0.1467,0.1487,0.1492,0.1471,0.1471,0.1471,0.1471,0.1471,0.1471,0.1693,0.167,0.1663,0.1634,0.1623,0.1602,0.1592,0.1579,0.1567,0.1541,0.1525,0.1516,0.1501,0.148,0.1463,0.1459,0.1452,0.1449,0.1445,0.1463,0.1466,0.1467,0.1472,0.1448,0.1448,0.1426,0.1426,0.1426]},{"header":{"parameterUnit":"m.s-1","parameterCategory":1,"la1":30.2991,"la2":30.254,"lo1":-89.0895,"lo2":-89.0444,"dy":0.0017,"dx":0.0017,"nx":28,"ny":28,"refTime":"2023-10-31T09:00:00:Z","depth":0,"parameterNumber":3,"parameterNumberName":"V-component_of_WINDS"},"data":[0,0,0,0,0,0,0,0,0,0,0,0,0,0,0,0,0,0,0,0,0,0,0,0,0,0,0,0,0,0,0,0,0,0,0,0,0,0,0,0,0,0,0,0,0,0,0,0,0,0,0,0,0,0,0,0,0,0,-9.058,-9.0581,0,-9.07,-9.0701,-9.0702,-9.0619,-9.0615,-9.0612,-9.0608,-9.0723,-9.0729,-9.0736,0,0,0,0,0,0,0,0,0,0,0,0,0,-9.0272,-9.0278,-9.058,-9.0581,-9.0583,-9.0699,-9.0701,-9.0703,-9.062,-9.0615,-9.0611,-9.0606,-9.0721,-9.0728,-9.0736,0,0,0,0,0,0,0,0,0,0,0,0,0,-9.04,-9.028,-9.0579,-9.0556,-9.0555,-9.0699,-9.0701,-9.0703,-9.0621,-9.0615,-9.0609,-9.0604,-9.0718,-9.0728,-9.0737,-9.091,0,0,-9.0767,-9.0772,0,0,0,0,0,0,0,0,-9.0393,-9.0411,-9.0558,-9.0557,-9.0557,-9.0639,-9.0635,-9.0772,-9.0622,-9.0595,-9.0608,-9.0601,-9.0699,-9.071,-9.0744,-9.0915,-9.092,-9.0768,-9.0774,-9.0778,-9.0781,0,0,0,0,0,0,0,-9.0384,-9.0406,-9.0627,-9.056,-9.0559,-9.0537,-9.0549,-9.066,-9.0677,-9.0597,-9.0591,-9.0607,-9.0698,-9.0735,-9.0746,-9.0921,-9.0768,-9.0777,-9.0783,-9.0786,-9.1239,-9.1245,0,0,0,0,0,0,-9.0378,-9.0399,-9.0623,-9.063,-9.046,-9.0547,-9.056,-9.0618,-9.0675,-9.0679,-9.0612,-9.0603,-9.0721,-9.0735,-9.075,-9.0956,-9.0778,-9.0787,-9.0793,-9.1233,-9.1241,-9.1247,0,0,0,0,0,0,-9.0372,-9.0399,-9.0618,-9.0513,-9.0539,-9.0558,-9.0624,-9.0623,-9.0661,-9.0687,-9.0688,-9.0648,-9.0717,-9.0736,-9.0871,-9.0959,-9.0792,-9.0801,-9.1226,-9.1235,-9.1244,-9.1368,0,0,0,0,0,0,-9.0364,-9.0397,-9.0465,-9.0516,-9.0545,-9.074,-9.0629,-9.063,-9.0679,-9.0668,-9.0721,-9.0724,-9.0714,-9.0857,-9.0881,-9.0969,-9.0808,-9.1218,-9.123,-9.1241,-9.1356,-9.1381,-9.1401,0,0,0,0,0,-9.0353,-9.0493,-9.0468,-9.0496,-9.063,-9.0745,-9.0762,-9.075,-9.0686,-9.0753,-9.077,-9.0722,-9.0946,-9.0872,-9.0898,-9.099,-9.1212,-9.1227,-9.124,-9.1346,-9.1376,-9.1401,0,0,0,0,0,0,-9.0448,-9.0499,-9.0472,-9.0633,-9.0686,-9.0731,-9.0814,-9.0782,-9.0851,-9.0838,-9.0818,-9.0831,-9.0972,-9.0994,-9.0911,-9.116,-9.1068,-9.1088,-9.114,-9.1168,-9.1191,-9.1182,-9.0817,0,0,0,0,0,-9.0489,-9.058,-9.0618,-9.0757,-9.0785,-9.0796,-9.0845,-9.0832,-9.0884,-9.0905,-9.0931,-9.0982,-9.1063,-9.1117,-9.1193,-9.1359,-9.1369,-9.1436,-9.1458,-9.1477,-9.1493,-9.1583,-9.1613,-9.1293,-9.1293,-9.1292,0,0,-9.0572,-9.0611,-9.0669,-9.0777,-9.0816,-9.0909,-9.0814,-9.0916,-9.0985,-9.0919,-9.1049,-9.1071,-9.1125,-9.1277,-9.1345,-9.13,-9.1584,-9.1494,-9.1509,-9.1516,-9.16,-9.1631,-9.1658,-9.1302,-9.13,-9.1299,0,0,-9.0771,-9.081,-9.093,-9.0972,-9.1034,-9.104,-9.1069,-9.112,-9.1132,-9.1263,-9.1216,-9.1296,-9.1437,-9.1478,-9.1517,-9.1735,-9.1694,-9.176,-9.1877,-9.1964,-9.1989,-9.2012,-9.2089,-9.2117,-9.1777,-9.1777,-9.1777,0,-9.0865,-9.1007,-9.0995,-9.1102,-9.115,-9.1099,-9.122,-9.126,-9.1342,-9.1376,-9.1325,-9.1502,-9.1535,-9.1695,-9.1749,-9.1782,-9.1814,-9.1753,-9.1987,-9.2009,-9.203,-9.2103,-9.2132,-9.1785,-9.1784,-9.1783,-9.1782,0,-9.112,-9.1218,-9.1308,-9.1392,-9.145,-9.1563,-9.1567,-9.1627,-9.161,-9.1621,-9.1754,-9.1793,-9.1877,-9.1914,-9.1896,-9.2072,-9.2042,-9.199,-9.1898,-9.2068,-9.2137,-9.2165,-9.1796,-9.1793,-9.1791,-9.1789,0,0,-9.1381,-9.146,-9.1493,-9.1531,-9.1596,-9.1671,-9.1781,-9.1866,-9.1917,-9.1976,-9.2067,-9.2188,-9.2141,-9.2186,-9.2172,-9.2249,-9.2419,-9.2187,-9.2188,-9.2229,-9.2615,-9.2654,-9.2687,-9.2393,-9.2398,-9.2402,-9.261,0,-9.1583,-9.1779,-9.1773,-9.1954,-9.2044,-9.1998,-9.2094,-9.2143,-9.2157,-9.2234,-9.2247,-9.2334,-9.2265,-9.2292,-9.2366,-9.2383,-9.2496,-9.2368,-9.2475,-9.2479,-9.2463,-9.2722,-9.2764,-9.2958,-9.2637,-9.2641,-9.2645,0,-9.1846,-9.1917,-9.2109,-9.2162,-9.2199,-9.2286,-9.2364,-9.2438,-9.2493,-9.2497,-9.2549,-9.2524,-9.2633,-9.254,-9.269,-9.2603,-9.2646,-9.2661,-9.2668,-9.2677,-9.2572,-9.2738,-9.302,-9.3049,-9.2687,-9.2683,-9.268,0,-9.2017,-9.216,-9.2294,-9.2328,-9.2393,-9.2455,-9.2484,-9.2534,-9.2586,-9.2653,-9.2686,-9.2764,-9.2806,-9.2866,-9.2862,-9.2794,-9.3014,-9.292,-9.3019,-9.302,-9.3067,-9.3064,-9.336,-9.3097,-9.3096,-9.3095,-9.3095,0,-9.2244,-9.2362,-9.2372,-9.2454,-9.2585,-9.2576,-9.2705,-9.2728,-9.2773,-9.2857,-9.282,-9.2899,-9.2889,-9.2968,-9.2965,-9.309,-9.3109,-9.3114,-9.3112,-9.3118,-9.3117,-9.3145,-9.3131,-9.3103,-9.3102,-9.31,-9.3099,0,-9.2456,-9.2468,-9.261,-9.2662,-9.2677,-9.2772,-9.2814,-9.2891,-9.2903,-9.3009,-9.3033,-9.3051,-9.3142,-9.3144,-9.3247,-9.3246,-9.3398,-9.338,-9.3381,-9.3377,-9.3476,-9.3467,-9.38,-9.3843,-9.3553,-9.3555,-9.3558,0,-9.26,-9.2691,-9.2753,-9.2809,-9.2843,-9.2932,-9.2986,-9.298,-9.3037,-9.3107,-9.3175,-9.3263,-9.3334,-9.3481,-9.3501,-9.358,-9.3564,-9.3675,-9.3575,-9.3578,-9.3565,-9.356,-9.3568,-9.3694,-9.3697,-9.37,-9.3702,0,-9.2854,-9.2856,-9.2936,-9.302,-9.3086,-9.315,-9.3209,-9.3256,-9.3256,-9.3322,-9.3417,-9.3472,-9.3579,-9.3667,-9.3744,-9.3771,-9.3737,-9.3734,-9.3761,-9.3767,-9.3764,-9.3767,-9.3433,-9.3726,-9.3723,-9.3722,-9.372,-9.3719,-9.3036,-9.3115,-9.3172,-9.3263,-9.3308,-9.3365,-9.344,-9.3463,-9.3543,-9.3632,-9.3623,-9.3728,-9.3779,-9.388,-9.3914,-9.3995,-9.3956,-9.3995,-9.4005,-9.4015,-9.4026,-9.3752,-9.4008,-9.4008,-9.4007,-9.4006,-9.4006,0,-9.3288,-9.3323,-9.3407,-9.3494,-9.3565,-9.353,-9.3594,-9.3655,-9.3749,-9.3802,-9.3873,-9.3982,-9.4067,-9.4095,-9.4177,-9.4236,-9.4222,-9.4258,-9.4253,-9.426,-9.4056,-9.4024,-9.4268,-9.4268,-9.4268,-9.4267,-9.4267,-9.4267,-9.3427,-9.356,-9.3568,-9.3722,-9.3755,-9.386,-9.39,-9.3952,-9.3994,-9.4118,-9.419,-9.4209,-9.4252,-9.4337,-9.4413,-9.4419,-9.445,-9.4493,-9.4492,-9.43,-9.4274,-9.4249,-9.4219,-9.45,-9.45,-9.4689,-9.4691,-9.4692]}]]